Martinsburg, WV

6:03 PM EST on January 21, 2018 (GMT -0500)
Eastern W Va Regional-Shepherd

Weather History for KMRB - October, 2013

Change the Weather History Date:

Friday, October 4, 2013

  Actual Average Record
Temperature  
Mean Temperature 72 °F 58 °F  
Max Temperature 86 °F 70 °F 89 °F (1959)
Min Temperature 58 °F 46 °F 25 °F (1974)
Degree Days  
Heating Degree Days 0 8  
Month to date heating degree days 0 29  
Since 1 July heating degree days 100 120  
Cooling Degree Days 7 1  
Month to date cooling degree days 21 4  
Year to date cooling degree days 1038 889  
Growing Degree Days 22 (Base 50)    
Moisture  
Dew Point 60 °F    
Average Humidity 71    
Maximum Humidity 100    
Minimum Humidity 42    
Precipitation  
Precipitation 0.00 in 0.10 in 3.00 in (1927)
Month to date precipitation 0.00 0.39  
Year to date precipitation 23.62 30.20  
Sea Level Pressure  
Sea Level Pressure 30.06 in    
Wind  
Wind Speed 3 mph (SW)    
Max Wind Speed 12 mph    
Max Gust Speed 21 mph    
Visibility 7 miles    
Events      
T = Trace of Precipitation, MM = Missing Value Source: NWS Daily Summary

Daily Weather History Graph

Daily Weather History Graph

Search for Another Location

Airport or City:

Trip Planner

Search our weather history database for the weather conditions in past years. The results will help you decide how hot, cold, wet, or windy it might be!

Date:

Astronomy

Oct. 04, 2013 Rise Set
Actual Time 7:11 AM EDT 6:49 PM EDT
Civil Twilight 6:44 AM EDT 7:16 PM EDT
Nautical Twilight 6:13 AM EDT 7:47 PM EDT
Astronomical Twilight 5:41 AM EDT 8:18 PM EDT
Moon 6:44 AM EDT (10/4) 6:30 PM EDT (10/4)
Length of Visible Light 12h 31m
Length of Day
11h 38m
Waning Crescent, 0% of the Moon is Illuminated
Oct 4
Waning Crescent
Oct 4
New
Oct 11
First Quarter
Oct 18
Full
Oct 26
Last Quarter

Hourly Weather History & Observations

Time (EDT) Temp. Heat Index Dew Point Humidity Pressure Visibility Wind Dir Wind Speed Gust Speed Precip Events Conditions
12:53 AM 63.0 °F - 60.1 °F 90% 30.06 in 7.0 mi Calm Calm - N/A   Clear
1:53 AM 63.0 °F - 60.1 °F 90% 30.06 in 6.0 mi South 3.5 mph - N/A   Clear
2:53 AM 62.1 °F - 57.9 °F 86% 30.06 in 6.0 mi Calm Calm - N/A   Clear
3:53 AM 57.9 °F - 57.0 °F 97% 30.05 in 2.5 mi Calm Calm - N/A   Clear
4:00 AM 60.8 °F - 57.2 °F 88% 30.06 in 4.0 mi Calm Calm - N/A   Clear
4:46 AM 59.0 °F - 57.2 °F 94% 30.06 in 2.5 mi Calm Calm - N/A   Clear
4:53 AM 57.9 °F - 57.0 °F 97% 30.06 in 2.0 mi Calm Calm - N/A   Clear
5:29 AM 59.0 °F - 57.2 °F 94% 30.07 in 4.0 mi Calm Calm - N/A   Clear
5:53 AM 57.9 °F - 55.9 °F 93% 30.06 in 4.0 mi WSW 4.6 mph - N/A   Clear
6:53 AM 60.1 °F - 57.9 °F 93% 30.08 in 5.0 mi Calm Calm - N/A   Overcast
7:53 AM 61.0 °F - 59.0 °F 93% 30.10 in 4.0 mi SSE 3.5 mph - N/A   Overcast
8:53 AM 64.0 °F - 60.1 °F 87% 30.11 in 6.0 mi Calm Calm - N/A   Overcast
9:53 AM 66.0 °F - 60.1 °F 81% 30.12 in 7.0 mi Calm Calm - N/A   Overcast
10:53 AM 72.0 °F - 62.1 °F 71% 30.11 in 10.0 mi Calm Calm - N/A   Overcast
11:53 AM 79.0 °F - 63.0 °F 58% 30.09 in 10.0 mi Calm Calm - N/A   Scattered Clouds
12:53 PM 82.0 °F 83.0 °F 62.1 °F 51% 30.07 in 10.0 mi Calm Calm - N/A   Clear
1:53 PM 82.9 °F 83.7 °F 62.1 °F 49% 30.05 in 10.0 mi Variable 3.5 mph - N/A   Mostly Cloudy
2:53 PM 84.9 °F 85.0 °F 61.0 °F 44% 30.04 in 10.0 mi Variable 5.8 mph - N/A   Clear
3:53 PM 86.0 °F 85.7 °F 60.1 °F 41% 30.03 in 10.0 mi WSW 5.8 mph - N/A   Partly Cloudy
4:53 PM 84.9 °F 84.4 °F 59.0 °F 41% 30.03 in 10.0 mi WSW 9.2 mph - N/A   Clear
5:53 PM 82.9 °F 83.2 °F 60.1 °F 46% 30.03 in 10.0 mi West 9.2 mph - N/A   Clear
6:53 PM 79.0 °F - 61.0 °F 54% 30.03 in 10.0 mi Calm Calm - N/A   Clear
7:53 PM 75.0 °F - 61.0 °F 62% 30.05 in 10.0 mi Calm Calm - N/A   Mostly Cloudy
8:53 PM 73.9 °F - 61.0 °F 64% 30.05 in 10.0 mi SSW 3.5 mph - N/A   Mostly Cloudy
9:53 PM 70.0 °F - 61.0 °F 73% 30.06 in 10.0 mi WSW 3.5 mph - N/A   Clear
10:53 PM 68.0 °F - 61.0 °F 78% 30.07 in 10.0 mi WSW 4.6 mph - N/A   Clear
11:53 PM 68.0 °F - 62.1 °F 81% 30.06 in 10.0 mi SW 3.5 mph - N/A   Mostly Cloudy